Temperature
10 11 11 11 11 11 10 10 9 10 10 9 9 9 9 10 11 11 11 12 13 13 14 15 16 16 15 14 15 15 16 16 17 17 17 16 17 16 16 15 14 14 14 14
10 11 11 10 10 11 10 9 9 9 10 9 9 9 10 10 10 11 12 12 13 13 14 14 13 13 14 14 15 16 16 17 17 17 17 16 16 15 15 15 14 14 14 14
9 10 10 9 10 10 10 9 9 8 9 9 9 9 10 10 11 11 12 13 13 13 14 14 14 14 14 14 14 15 16 16 16 16 16 15 14 14 14 14 14 14 14 14
8 10 9 10 11 11 10 10 10 10 10 10 9 10 11 11 11 12 12 13 13 13 12 13 13 13 14 14 14 14 14 14 15 15 14 13 13 13 13 13 13 13 14 14
8 8 9 10 10 9 9 9 10 10 10 10 11 12 12 12 12 12 13 13 13 13 13 12 12 12 12 12 12 12 12 12 12 12 12 12 12 12 12 12 12 12 13 13
8 9 9 9 10 10 9 9 10 10 10 10 10 10 11 12 13 13 13 13 13 13 13 13 13 12 13 12 12 12 12 12 12 12 11 11 11 11 11 11 11 11 12 12
8 9 9 9 10 9 9 10 10 10 10 10 9 9 11 13 14 14 14 14 14 14 14 13 13 13 13 12 12 12 12 12 12 12 11 11 11 11 12 11 11 11 11 11
7 9 9 11 9 8 9 10 10 11 10 10 11 12 13 13 14 15 14 14 14 14 14 14 14 13 13 13 12 12 12 12 12 12 11 11 11 11 11 11 11 11 11 11
8 9 10 11 10 11 10 11 11 11 11 11 11 12 13 13 14 14 15 15 14 14 14 14 14 14 14 13 13 12 12 11 11 11 11 11 11 11 11 11 11 11 11 12
8 9 10 11 11 11 11 11 11 11 11 11 12 12 12 13 14 14 15 15 15 15 15 15 15 14 14 14 13 12 12 11 11 11 11 11 11 11 11 11 10 10 11 11
8 9 10 11 11 11 11 11 11 11 11 11 12 12 13 13 13 14 15 15 15 15 16 15 15 15 15 14 14 13 12 12 11 11 10 11 11 11 11 10 10 10 10 10
9 10 10 12 12 12 12 12 11 11 11 11 12 12 12 13 13 14 15 15 15 15 16 16 16 16 15 15 14 14 13 12 11 11 11 11 11 11 11 10 10 10 10 10
13 13 12 13 12 12 12 12 12 12 12 12 11 12 12 13 13 14 14 15 16 16 16 16 16 16 15 15 15 14 13 12 11 11 11 11 11 11 10 10 10 9 9 9
14 13 12 12 12 12 12 12 12 12 12 12 12 12 12 12 13 14 15 15 16 16 16 16 16 16 16 16 16 15 13 13 12 11 11 11 11 10 10 9 9 9 9 9
13 13 13 13 12 12 12 12 12 12 12 12 12 12 12 12 13 13 14 15 15 16 16 16 16 16 16 16 16 15 14 13 12 11 11 11 10 10 10 9 9 9 9 9
13 13 13 12 12 12 12 12 12 12 12 12 12 12 12 12 13 13 14 14 15 15 15 16 16 16 16 16 16 15 14 13 12 12 11 11 10 10 10 10 10 9 9 9
13 12 12 12 12 12 12 12 12 12 12 12 12 12 12 12 13 13 14 14 14 14 14 15 16 16 16 17 16 16 14 13 12 12 11 11 11 10 10 10 10 10 9 9
15 16 15 14 13 12 12 12 12 11 11 11 12 12 12 12 12 13 14 14 14 14 14 15 16 16 17 17 16 15 14 13 12 11 11 11 11 10 10 10 10 9 9 8
14 14 14 13 13 12 12 12 12 11 11 11 11 11 12 12 12 12 13 13 14 15 15 15 16 16 17 16 16 15 14 13 12 11 11 11 11 11 10 10 10 9 9 9
14 14 14 13 13 12 12 12 11 11 11 11 11 11 12 12 12 12 13 13 13 14 15 15 15 15 15 15 15 14 13 13 12 11 11 11 11 11 11 10 10 9 9 9
14 14 13 13 13 12 12 11 11 11 11 11 11 11 12 12 12 12 12 13 13 14 14 15 15 15 15 15 15 14 13 12 12 11 11 11 11 11 11 11 10 10 9 9
15 14 14 13 13 12 12 11 11 11 11 11 11 11 11 12 12 12 11 12 13 14 14 15 15 15 15 15 15 14 13 12 12 12 12 12 11 11 11 11 10 10 9 9
15 14 14 13 13 12 12 11 11 11 11 11 11 11 11 12 12 12 12 11 12 13 14 14 15 16 15 15 14 14 13 13 12 12 12 12 12 11 11 11 10 9 9 8
15 15 14 13 13 12 12 12 11 11 11 11 11 11 11 12 11 11 11 11 11 12 13 13 14 15 15 15 14 14 13 13 12 12 11 12 12 11 11 10 10 9 9 8
15 15 14 13 13 12 12 12 11 11 11 11 11 11 11 11 11 11 11 11 11 11 12 12 12 13 14 15 14 14 14 13 12 12 12 11 11 11 11 10 10 9 8 8
15 15 14 14 13 13 12 12 12 12 11 12 12 11 11 11 11 11 11 11 11 11 11 11 12 12 13 14 14 14 14 13 12 12 12 12 11 11 11 10 10 9 9 8
15 14 14 13 13 13 12 12 12 12 12 12 12 11 11 11 11 11 11 11 11 11 11 11 12 12 12 13 13 13 13 13 13 12 12 12 11 11 10 9 9 9 9 8
Wind_Speed
5 5 9 17 18 18 17 12 6 9 9 12 17 16 16 17 17 15 15 15 13 11 11 10 11 11 12 6 1 5 4 6 5 5 6 7 4 4 5 4 2 3 4 4
2 5 5 11 19 17 14 14 11 12 8 17 17 11 14 16 17 14 12 13 12 12 11 10 10 9 9 7 6 5 3 4 6 5 4 3 5 6 5 4 2 3 5 4
1 5 3 7 13 14 9 10 9 7 10 17 15 14 12 14 15 14 11 10 11 11 11 10 10 10 9 8 8 9 9 8 6 4 5 6 6 7 7 6 5 5 5 4
1 4 5 4 6 8 7 7 11 10 10 10 11 10 6 12 13 12 10 7 7 7 7 7 8 9 9 10 10 10 9 10 10 11 10 9 9 9 8 7 7 6 5 4
3 3 1 4 4 5 5 5 11 13 16 17 16 7 7 16 13 8 7 6 6 6 5 4 5 5 6 7 7 6 7 7 7 7 8 9 8 8 7 6 7 7 6 6
3 3 1 4 3 2 1 1 6 10 12 14 13 10 10 16 15 11 7 4 4 6 7 8 8 6 7 7 7 7 7 7 7 8 8 7 6 5 5 5 6 6 7 8
3 2 4 5 3 1 1 2 6 6 8 9 5 3 11 14 12 9 7 6 6 6 5 5 5 6 7 7 7 6 6 6 6 5 5 5 6 5 6 6 7 7 7 7
3 2 4 5 3 5 4 3 4 5 4 6 8 9 9 10 10 9 7 5 4 4 5 5 4 3 2 2 3 2 2 4 5 6 5 4 6 5 6 6 7 7 7 7
5 5 4 3 4 5 5 4 4 4 7 6 6 7 9 9 9 9 8 6 3 3 4 4 3 1 2 3 2 1 2 3 3 4 4 4 5 5 5 5 6 6 7 7
2 5 4 5 4 5 5 5 6 6 6 5 5 7 8 8 8 8 7 6 4 4 5 5 5 3 2 1 3 2 1 0 2 3 4 4 4 4 4 5 5 6 5 6
3 4 2 6 7 6 5 5 4 3 3 4 5 6 6 7 8 7 7 6 6 5 6 7 6 5 3 2 3 3 2 0 2 2 3 2 3 3 2 3 3 2 3 3
8 9 8 7 9 7 5 3 1 3 5 6 6 7 7 8 7 7 8 8 8 8 8 8 7 7 4 3 3 3 1 1 1 2 3 2 2 2 2 2 3 3 5 6
6 8 6 6 6 6 6 5 3 2 1 4 6 6 7 7 7 8 8 9 9 9 9 9 8 8 6 4 4 3 2 2 1 2 3 3 3 3 3 2 2 3 6 8
8 9 4 5 6 7 6 5 3 1 1 3 4 5 6 6 7 9 9 10 10 9 8 8 7 7 6 4 4 4 3 3 3 2 2 2 3 3 3 3 3 4 5 6
11 8 8 9 6 5 4 3 3 1 3 4 4 5 7 7 8 9 9 9 9 8 8 9 8 8 7 4 4 5 4 4 3 3 3 3 3 4 4 4 4 4 4 6
11 7 8 10 10 8 6 5 4 3 3 4 4 6 6 7 7 8 8 8 8 8 10 9 9 10 10 5 4 5 5 6 5 4 3 4 3 3 4 4 4 4 5 5
14 11 9 9 10 9 9 8 6 5 4 5 5 5 5 6 7 8 9 8 7 6 7 8 10 13 11 6 5 5 5 5 6 4 3 3 3 3 3 3 4 4 4 4
14 16 14 12 11 10 9 8 7 6 5 5 5 3 4 5 6 8 8 9 8 7 7 9 11 14 11 4 5 6 6 6 5 4 3 3 4 3 2 3 3 3 2 4
10 11 11 10 11 10 8 8 7 5 5 4 3 3 3 4 4 6 8 8 8 9 11 12 15 13 10 4 3 5 6 6 6 4 3 4 4 3 2 3 2 2 2 2
10 10 11 10 10 9 8 7 6 5 5 3 2 3 4 5 5 6 6 6 6 6 10 11 11 8 8 5 2 4 5 6 6 5 4 3 3 3 3 3 3 2 1 0
12 11 11 11 10 9 8 7 6 5 4 3 3 3 4 5 5 5 5 5 7 9 10 10 8 7 7 5 1 3 4 5 5 5 5 4 4 4 3 2 2 2 1 1
11 11 12 11 10 9 8 7 6 5 4 4 4 3 4 5 5 6 6 6 7 11 8 7 7 8 10 8 2 4 4 5 4 4 4 5 5 4 4 3 2 1 1 1
10 10 11 11 10 8 7 7 7 6 6 6 6 5 4 5 4 4 6 6 7 10 8 7 10 14 12 4 3 4 5 5 4 4 4 5 5 5 4 4 3 2 2 2
10 11 11 10 8 7 7 8 8 7 6 6 6 6 4 4 5 5 6 9 11 12 9 9 12 13 8 2 4 4 4 4 4 4 4 4 5 5 4 4 4 3 2 3
9 10 10 10 9 9 10 8 6 6 6 6 6 6 5 6 6 6 6 7 10 10 8 11 14 12 5 2 4 4 5 5 5 5 5 4 4 5 5 5 5 4 3 4
9 9 10 12 10 9 8 7 6 7 6 5 6 6 6 5 6 6 6 7 7 8 7 6 7 7 5 3 3 4 5 5 5 5 5 5 5 5 5 6 5 5 4 3
6 7 6 6 6 7 7 7 7 7 8 7 6 6 6 5 5 5 5 5 6 6 7 6 6 6 4 4 4 3 4 5 6 6 5 5 5 5 6 6 6 5 4 4
Wind_Direction
146 156 52 35 21 24 35 22 10 336 345 349 341 338 342 348 358 19 23 28 32 37 37 30 40 45 55 78 357 342 344 303 334 346 324 331 31 27 23 37 23 296 274 244
214 250 1 25 19 14 24 21 1 356 360 334 337 353 351 355 1 10 15 16 16 23 25 26 36 44 41 33 4 23 33 323 332 340 345 3 14 12 8 7 317 266 267 278
316 305 329 7 359 356 12 24 360 1 335 325 336 346 348 357 1 1 0 4 10 14 17 11 21 30 29 23 27 34 34 24 7 1 22 22 11 1 4 358 345 344 343 328
356 7 46 323 337 347 359 18 7 352 342 336 324 307 330 12 3 355 346 360 15 17 19 10 20 20 21 25 28 31 31 28 25 34 37 33 32 27 19 10 6 358 6 16
69 71 48 323 357 6 1 351 357 353 351 353 346 344 358 1 357 340 335 351 356 4 28 23 31 25 47 37 32 40 38 38 38 46 50 41 35 27 14 16 26 27 31 35
89 96 153 258 293 334 98 333 337 349 347 349 352 27 346 334 337 337 343 352 9 18 20 17 8 7 38 27 25 24 21 26 25 33 42 35 27 28 14 20 22 28 37 31
90 110 247 246 266 104 140 277 319 332 329 342 347 298 294 314 328 340 338 351 16 16 6 348 342 15 27 13 11 353 9 22 19 29 44 33 33 30 24 23 25 27 33 25
139 159 230 203 175 177 211 268 288 304 309 323 309 307 318 326 334 344 340 340 359 352 350 344 351 37 24 352 314 311 19 41 26 22 26 32 48 39 34 32 29 19 12 4
196 217 237 203 206 204 192 234 261 279 298 305 308 315 319 322 330 333 329 316 327 347 332 339 358 25 21 334 281 281 31 36 20 12 19 30 42 35 33 34 33 21 11 3
239 234 225 245 246 240 227 237 266 273 284 301 307 313 317 326 331 330 324 326 320 334 344 334 343 336 275 236 171 166 162 349 3 3 6 28 39 41 43 25 23 19 6 4
227 252 255 247 233 238 252 263 285 310 293 305 320 326 321 318 316 318 321 327 336 326 311 296 304 308 281 231 166 162 161 220 350 355 350 19 80 58 52 40 23 350 343 341
207 196 176 205 216 219 227 238 271 346 348 338 333 321 319 315 316 323 329 330 335 325 304 292 292 295 297 243 203 184 178 103 10 351 357 3 67 97 76 45 15 15 14 6
182 170 171 182 190 197 199 195 197 202 301 319 327 326 326 321 317 322 322 323 322 314 303 292 291 289 298 270 221 208 193 154 124 44 40 16 38 54 44 8 326 330 345 341
148 133 156 182 196 196 183 169 155 177 296 298 309 325 326 319 318 327 331 328 320 320 325 318 304 302 305 288 227 215 186 154 142 113 81 52 52 60 52 29 0 337 340 342
175 168 174 174 174 178 172 170 170 235 293 309 321 330 339 336 332 329 327 332 330 335 344 349 344 330 328 306 217 202 174 161 151 126 105 95 69 61 54 44 33 5 352 349
173 159 152 160 172 176 178 197 208 245 272 293 315 326 329 327 325 325 330 347 355 341 340 346 340 324 320 303 206 181 168 159 147 127 113 98 77 66 54 48 45 37 25 4
158 183 183 185 187 187 193 195 203 227 261 276 286 306 322 329 334 338 337 338 339 330 324 329 326 323 314 287 194 163 150 147 138 124 122 117 106 86 70 58 58 64 36 23
187 187 183 181 183 188 196 200 208 224 241 269 292 313 340 337 332 328 328 330 334 339 336 331 327 330 324 287 176 148 143 140 132 131 140 135 127 121 104 84 74 83 49 31
184 175 175 179 184 185 192 199 208 216 244 267 278 308 319 314 319 323 332 343 347 342 335 332 330 339 342 352 138 138 142 141 136 142 158 151 135 136 142 129 114 85 69 49
186 182 177 181 180 182 192 203 205 218 243 246 270 307 326 330 330 331 337 329 303 291 302 314 323 331 342 343 131 147 157 155 152 156 161 159 150 151 170 163 150 151 149 135
187 179 176 180 189 196 199 197 193 217 239 235 259 285 301 308 319 324 322 314 302 309 315 315 321 320 327 328 263 172 170 173 169 164 154 150 151 164 194 210 205 192 182 126
182 180 182 181 185 201 208 198 199 217 232 242 251 265 294 307 321 320 289 263 285 307 314 309 307 313 320 313 212 188 181 176 182 181 167 166 173 181 194 202 207 211 195 125
177 177 178 179 186 196 198 199 204 209 227 231 234 242 254 276 280 290 299 290 297 305 312 305 310 316 319 304 182 178 181 180 185 199 193 186 186 189 194 195 190 194 208 171
177 177 179 176 165 174 202 215 214 213 220 228 234 233 236 277 291 261 260 292 306 311 317 315 322 329 328 182 172 174 180 189 186 194 214 211 196 186 190 188 181 189 188 162
184 179 167 165 180 201 213 210 205 220 224 235 248 246 235 224 241 278 299 305 310 313 319 325 333 338 333 204 177 182 185 193 202 194 203 221 209 190 182 178 182 190 197 180
179 185 189 190 194 197 198 192 205 220 217 233 246 241 238 232 239 262 284 297 307 314 320 322 326 333 325 280 218 196 193 189 196 205 198 201 203 189 181 177 177 185 191 181
185 186 179 189 206 202 196 196 204 222 221 219 237 236 228 235 245 264 284 302 314 316 319 321 323 329 328 301 271 238 213 199 192 195 203 196 190 189 190 186 179 180 178 168
Height
1562 1560 1558 1557 1555 1550 1550 1550 1550 1547 1539 1537 1533 1528 1521 1515 1509 1505 1502 1498 1496 1494 1492 1489 1486 1486 1487 1488 1489 1490 1490 1491 1492 1494 1495 1497 1499 1500 1497 1495 1497 1498 1500 1501
1563 1560 1560 1560 1558 1556 1554 1555 1553 1548 1544 1539 1534 1530 1523 1518 1514 1510 1507 1504 1502 1500 1499 1497 1494 1494 1495 1495 1494 1491 1491 1492 1494 1494 1494 1497 1498 1497 1496 1495 1496 1498 1497 1497
1569 1565 1562 1570 1565 1562 1559 1559 1557 1557 1555 1546 1536 1532 1527 1522 1519 1515 1513 1511 1508 1505 1501 1500 1498 1499 1499 1497 1498 1496 1495 1495 1495 1494 1494 1495 1496 1495 1495 1495 1495 1495 1495 1495
1571 1568 1577 1575 1566 1563 1560 1559 1558 1556 1553 1548 1542 1534 1530 1527 1523 1520 1519 1517 1516 1512 1509 1507 1506 1505 1503 1502 1500 1499 1499 1497 1495 1494 1493 1495 1496 1495 1494 1493 1493 1492 1492 1492
1573 1578 1575 1571 1567 1566 1565 1563 1558 1555 1550 1545 1539 1535 1532 1530 1528 1526 1524 1521 1519 1517 1515 1515 1513 1512 1510 1508 1508 1506 1504 1502 1500 1498 1496 1496 1497 1496 1495 1493 1492 1491 1490 1489
1574 1576 1578 1574 1567 1565 1567 1566 1559 1556 1553 1549 1544 1541 1540 1534 1531 1529 1527 1526 1524 1521 1520 1518 1517 1516 1513 1512 1511 1507 1504 1502 1501 1501 1500 1502 1501 1499 1497 1495 1494 1492 1491 1490
1576 1576 1574 1566 1565 1566 1570 1567 1560 1558 1555 1551 1549 1549 1544 1538 1534 1532 1530 1528 1527 1527 1526 1524 1522 1520 1518 1517 1515 1513 1510 1509 1508 1506 1506 1505 1503 1500 1499 1497 1496 1494 1492 1492
1575 1574 1572 1559 1562 1566 1563 1559 1558 1557 1555 1553 1550 1546 1543 1541 1538 1536 1534 1533 1532 1532 1530 1528 1527 1524 1523 1521 1519 1517 1515 1513 1510 1508 1507 1506 1504 1503 1501 1499 1497 1495 1494 1494
1567 1565 1557 1557 1558 1559 1558 1558 1557 1555 1554 1552 1549 1546 1544 1541 1539 1536 1534 1533 1532 1531 1531 1530 1528 1526 1525 1524 1521 1519 1517 1515 1512 1510 1509 1508 1506 1504 1502 1499 1497 1496 1495 1495
1562 1559 1557 1557 1557 1557 1557 1557 1556 1554 1552 1551 1549 1547 1544 1542 1540 1537 1535 1534 1532 1531 1530 1530 1529 1528 1526 1524 1521 1519 1517 1515 1513 1511 1509 1508 1506 1504 1502 1500 1498 1496 1496 1495
1559 1556 1556 1555 1554 1554 1554 1554 1554 1553 1551 1550 1548 1546 1544 1541 1539 1537 1535 1534 1532 1531 1530 1529 1528 1528 1526 1524 1522 1519 1517 1514 1512 1510 1509 1507 1506 1504 1502 1501 1500 1499 1498 1497
1550 1546 1548 1549 1551 1552 1552 1553 1553 1552 1551 1550 1548 1546 1543 1540 1538 1536 1534 1533 1532 1531 1530 1528 1527 1527 1525 1523 1521 1519 1516 1514 1512 1510 1509 1508 1506 1505 1503 1502 1501 1501 1500 1499
1540 1541 1545 1547 1549 1550 1551 1552 1552 1552 1551 1550 1548 1546 1543 1540 1538 1537 1535 1533 1531 1529 1528 1527 1526 1525 1524 1522 1520 1518 1516 1514 1512 1511 1510 1509 1507 1505 1504 1503 1503 1503 1502 1501
1538 1540 1543 1545 1547 1548 1550 1550 1551 1551 1550 1549 1547 1545 1543 1541 1538 1535 1533 1532 1530 1528 1526 1525 1525 1524 1522 1521 1519 1517 1516 1514 1513 1512 1511 1510 1508 1506 1504 1503 1502 1502 1502 1502
1534 1537 1539 1541 1544 1546 1548 1549 1549 1549 1549 1547 1546 1544 1542 1539 1536 1534 1532 1531 1529 1527 1526 1524 1523 1522 1521 1520 1518 1516 1515 1514 1513 1512 1512 1511 1510 1508 1506 1504 1502 1502 1503 1503
1531 1535 1537 1539 1541 1544 1545 1546 1547 1547 1546 1545 1544 1543 1541 1538 1535 1533 1532 1530 1528 1526 1525 1523 1522 1520 1519 1518 1517 1515 1514 1513 1513 1512 1512 1512 1511 1509 1508 1506 1504 1504 1504 1504
1525 1529 1532 1535 1538 1540 1542 1543 1544 1544 1544 1543 1542 1541 1539 1536 1534 1532 1530 1528 1527 1525 1523 1521 1520 1518 1516 1516 1515 1513 1512 1512 1512 1512 1512 1512 1512 1511 1510 1508 1507 1506 1506 1505
1519 1523 1526 1529 1533 1536 1538 1540 1540 1541 1541 1541 1540 1538 1536 1534 1531 1529 1527 1526 1525 1524 1522 1520 1517 1515 1514 1514 1513 1512 1511 1511 1511 1512 1512 1513 1513 1513 1512 1511 1510 1509 1508 1507
1518 1522 1525 1528 1531 1533 1536 1537 1537 1537 1538 1538 1537 1536 1534 1532 1530 1527 1525 1523 1521 1521 1520 1517 1515 1513 1512 1512 1512 1511 1510 1509 1510 1511 1512 1512 1513 1513 1512 1512 1511 1510 1509 1509
1514 1519 1523 1526 1528 1530 1532 1534 1534 1534 1535 1535 1534 1533 1532 1530 1528 1526 1524 1521 1519 1517 1516 1515 1513 1512 1512 1511 1511 1511 1510 1509 1509 1510 1511 1512 1513 1513 1513 1512 1512 1511 1511 1510
1511 1515 1519 1523 1525 1527 1529 1530 1530 1531 1532 1532 1532 1531 1529 1528 1527 1525 1523 1521 1519 1516 1514 1513 1511 1510 1510 1510 1510 1510 1510 1510 1509 1509 1510 1511 1512 1513 1513 1512 1512 1512 1511 1511
1507 1511 1515 1518 1522 1524 1525 1526 1528 1529 1530 1530 1529 1528 1527 1526 1524 1523 1521 1518 1516 1513 1511 1510 1509 1508 1508 1508 1509 1509 1509 1509 1509 1508 1509 1510 1511 1512 1512 1512 1512 1511 1511 1510
1503 1508 1512 1515 1518 1521 1522 1523 1524 1526 1527 1527 1527 1526 1525 1523 1522 1520 1519 1517 1514 1511 1508 1506 1505 1505 1505 1506 1507 1508 1508 1508 1508 1508 1508 1508 1509 1510 1511 1511 1511 1511 1510 1509
1501 1504 1508 1512 1515 1517 1518 1520 1521 1522 1523 1524 1524 1524 1523 1522 1521 1519 1516 1514 1512 1509 1506 1503 1502 1502 1503 1504 1505 1506 1507 1507 1507 1507 1507 1507 1508 1509 1509 1510 1510 1509 1508 1508
1499 1501 1504 1507 1509 1511 1514 1516 1517 1518 1519 1520 1521 1521 1520 1520 1519 1518 1515 1512 1510 1507 1504 1500 1499 1499 1500 1501 1502 1503 1505 1506 1506 1505 1505 1506 1507 1507 1508 1508 1508 1507 1507 1507
1494 1496 1499 1501 1504 1507 1509 1511 1513 1514 1515 1515 1517 1517 1517 1517 1516 1514 1513 1510 1508 1505 1502 1499 1497 1497 1497 1498 1500 1500 1502 1503 1504 1504 1504 1504 1505 1505 1506 1506 1506 1506 1506 1506
1489 1492 1495 1498 1500 1502 1504 1506 1507 1509 1510 1512 1512 1513 1513 1514 1513 1512 1510 1509 1506 1504 1502 1499 1497 1496 1496 1496 1496 1497 1499 1500 1501 1502 1502 1502 1502 1503 1504 1505 1505 1505 1505 1505